Regional Weather Roundup
Issued by NWS Wakefield, VA

Home | Current Version | Previous Version | Text Only | Print | Product List | Glossary Off
Versions: 1 2 3 4 5 6 7 8 9 10 11 12 13 14 15 16 17 18 19 20 21 22 23 24 25 26 27 28 29 30 31 32 33 34 35 36 37 38 39 40 41 42 43 44 45 46 47 48 49 50

000
ASUS41 KAKQ 182210
RWRAKQ

REGIONAL WEATHER ROUNDUP
NATIONAL WEATHER SERVICE WAKEFIELD VA
600 PM EDT THU SEP 18 2014

Note: "fair" indicates few or no clouds below 12,000 feet with no
significant weather and/or obstructions to visibility. * = Denotes
station may not report precipitation (e.g., rain,snow,etc.),
thunder or fog.

VAZ042-051-052>054-056-182300-
NORTHERN VIRGINIA

CITY           SKY/WX    TMP DP  RH WIND       PRES   REMARKS
WASH NATIONAL  PTSUNNY   77  59  53 NE14G22   30.00S
DULLES         MOSUNNY   74  49  41 N8        30.00S
FORT BELVOIR   PTSUNNY   73  62  70 S2        30.01R
QUANTICO       SUNNY     73  62  68 SW8       30.01S
FREDERICKSBRG* MOSUNNY   73  62  67 S3        30.00S
STAFFORD*      PTSUNNY   70  64  81 CALM      30.05R
WARRENTON      MOSUNNY   77  59  53 N5        30.01R
CULPEPER*      MOSUNNY   75  52  43 CALM      30.01S
MANASSAS*      SUNNY     75  50  41 N7        30.00
LEESBURG*      SUNNY     75  50  41 N5        30.02S
WINCHESTER     PTSUNNY   73  46  38 NE5       30.02R
FRONT ROYAL*   MOCLDY    72  52  49 CALM      30.01R
LURAY*         MOCLDY    75  52  43 N3        30.01S
$$

VAZ048-049-060>072-079>083-182300-
CENTRAL AND SOUTH CENTRAL VIRGINIA...AND NORTH CENTRAL NORTH CAROLINA

CITY           SKY/WX    TMP DP  RH WIND       PRES   REMARKS
RICHMOND       CLOUDY    70  62  76 NE6       30.01R
CHESTERFIELD*  CLOUDY   N/A N/A N/A CALM      30.01S
PETERSBURG*    CLOUDY    71  62  73 CALM      30.01S
HANOVER        CLOUDY    69  65  86 CALM      30.03R
TAPPAHANNOCK*  LGT RAIN  68  58  71 SE3       30.03R
CHARLOTTSVILLE CLOUDY    72  59  63 VRB5      30.01S
ORANGE*        CLOUDY    72  61  68 SE5       30.03R
LOUISA*        CLOUDY    70  64  83 SE3       30.00S
FARMVILLE*     DRIZZLE   70  61  73 NE3       29.98S
CREWE*         CLOUDY    70  64  82 CALM      30.00S
FORT PICKETT*  CLOUDY    72  63  73 CALM      30.00S
LUNENBURG*     CLOUDY    74  62  67 CALM      30.00S
SOUTH HILL*    CLOUDY    75  64  69 CALM      30.05S
LAWRENCEVILLE* CLOUDY    72  66  82 CALM      30.00S
ROANOKE RAPIDS CLOUDY    75  59  57 E3        29.99F
RALEIGH        PTSUNNY   76  60  57 E6        29.98S
$$

VAZ088>098-182300-
SOUTHEAST VIRGINIA

CITY           SKY/WX    TMP DP  RH WIND       PRES   REMARKS
NORFOLK        SUNNY     73  53  49 E8        30.01S
VIRGINIA BEACH MOSUNNY   72  53  51 E9        30.01S
NORFOLK NAVAL  MOSUNNY   73  54  51 E10       30.03R
WEST POINT*    CLOUDY    71  57  61 CALM      30.03S
NEWPORT NEWS   CLOUDY    74  55  51 E7        30.01S
LANGLEY AFB    MOSUNNY   71  55  56 SE7       30.01S
FORT EUSTIS    PTSUNNY   74  50  43 SE6       30.00R
WILLIAMSBURG*  PTSUNNY   73  61  64 E3        30.02R
HR EXEC AP*    CLEAR     73  54  49 E9        30.03R
FRANKLIN*      CLOUDY    73  59  60 E5        30.00S
WAKEFIELD      CLOUDY    72  59  63 CALM      30.01R
$$

VAZ020-022-025-037-045-182300-
WEST CENTRAL AND SOUTHWEST VIRGINIA

CITY           SKY/WX    TMP DP  RH WIND       PRES   REMARKS
STAUNTON*      CLOUDY    72  55  55 SE6       30.04R
HOT SPRINGS VA CLOUDY    60  38  44 CALM      30.12R
LYNCHBURG      PTSUNNY   73  61  65 S7        30.01S
DANVILLE       CLOUDY    74  63  68 CALM      29.99S
SOUTH BOSTON*  NOT AVBL
MARTINSVILLE   CLOUDY    72  63  73 CALM      30.02S
ROANOKE        PTSUNNY   72  58  61 SE8       30.02S
BLACKSBURG     PTSUNNY   70  59  68 NW3       30.07R
DUBLIN*        PTSUNNY   70  57  63 N5        30.06S
MARION*        CLOUDY    67  54  63 CALM      30.09S
HILLSVILLE*    CLOUDY    66  56  68 CALM      30.06S
RICHLANDS*     CLOUDY    68  55  62 CALM      30.08R
WISE*          MOSUNNY   68  48  49 N5        30.09S
ABINGDON*      CLOUDY    70  55  58 CALM      30.05S
$$

MDZ021>025-VAZ099-100-182300-
SOUTHERN MARYLAND AND THE DELMARVA PENINSULA

CITY           SKY/WX    TMP DP  RH WIND       PRES   REMARKS
PATUXENT RIVER PTSUNNY   72  54  53 S3        30.01R
BAY BRIDGE APT   N/A     70  59  68 NE5       30.02R
LEONARDTOWN    MOSUNNY   70  55  60 SE3       30.03R
DOVER          CLOUDY    70  54  56 CALM      30.00S
GEORGETOWN     CLOUDY    70  54  56 E8        30.03R
EASTON         PTSUNNY   72  63  73 CALM      30.05S
CAMBRIDGE      MOSUNNY   72  59  64 CALM      30.00S
SALISBURY      CLOUDY    72  53  51 SE5       30.02R
OCEAN CITY     MOSUNNY   71  52  50 SE3       30.02S
WALLOPS ISLAND CLOUDY    71  54  54 SE7       30.03R
ACCOMACK*      CLOUDY    70  52  52 SE3       30.02R
$$

NCZ012>017-030>032-182300-
EASTERN NORTH CAROLINA

CITY           SKY/WX    TMP DP  RH WIND       PRES   REMARKS
ELIZABETH CITY SUNNY     72  55  55 E10       30.01S
AHOSKIE*       SUNNY     75  59  57 CALM      30.00S
EDENTON*       SUNNY     73  58  60 SE9       30.01S
CURRITUCK*     SUNNY     73  53  49 NE7       30.02S
KILL DEVIL HLS SUNNY     72  55  55 E5        30.00S
MANTEO         SUNNY     72  56  56 NE8G16    30.01F
CAPE HATTERAS  SUNNY     71  57  61 NE9G18    30.00R
TARBORO*       CLEAR     79  60  52 E3        30.00S
GOLDSBORO      SUNNY     79  63  57 E7        29.97R
WASHINGTON     SUNNY     74  59  59 CALM      30.00S
GREENVILLE     MOSUNNY   79  61  53 E6        30.01R
NEW BERN       SUNNY     77  60  55 E10       30.00R
WILMINGTON     SUNNY     77  63  61 E12       29.97S
$$

VAZ048-182300-
ELSEWHERE

CITY           SKY/WX    TMP DP  RH WIND       PRES   REMARKS
HARRISBURG PA  MOSUNNY   74  45  35 N9        30.02R
BALTIMORE      PTSUNNY   70  59  68 E8        30.01S
ANNAPOLIS      MOSUNNY   69  63  81 NE6       30.01S
ANDREWS AFB    PTSUNNY   70  61  73 E7        30.01R
WILMINGTON DE  PTSUNNY   72  55  55 SW5       30.02S
PHILADELPHIA   MOSUNNY   72  54  53 W8        30.01S
WILDWOOD NJ*   CLOUDY    70  52  52 CALM      30.02S
ATLANTIC CITY  CLOUDY    70  54  56 S5        30.01F
HENDERSON NC   SUNNY     74  59  60 E3        30.00R
GREENSBORO     PTSUNNY   74  63  68 E6        29.99S
ROCKY MOUNT    SUNNY     78  60  53 E3        29.99S
FAYETTEVILLE   SUNNY     80  62  54 E6        29.96S
CHARLOTTE      PTSUNNY   77  63  61 N7        29.97F
$$

VAZ100-182300-
MARINE

STATION/POSITION TIME  TEMP    WIND        PRES    WAVE   SWELL
                       AIR SEA DIR/SP/G            HT/PER HT/PER
                 (UTC) (F)     (DEG/KT/KT) (MB)    (FT/S) (FT/S)
44066 TX TWR #4  2200   69 74  330/  8/ 12 1016.2R   3/11   3/11
CAPE MAY NJ      2200   72 76  290/  2/  3 1015.8S
LEWES DE         2200   71 74  190/  3/  4 1016.2S
15NM E FENWICK I 2200   70 74              1016.3F   3/11
OCEAN-CITY-INLET 2200   71 72  140/  4/  7 1016.0S
WACHAPREAGUE VA  2200   71 75  140/  5/  7 1016.5S
THOMAS POINT MD  2200   70 74  120/  4/  4 1017.3R
GOOSES REEF MD   2200   72     220/  8/ 10 1016.4R
COVE POINT MD    2200   70     200/ 10/ 11 1015.9S
SOLOMONS ISLAND  2200      76                N/A
BISHOPS HEAD MD  2200   73 75  200/  5/  6 1015.8R
PINEY POINT MD   2200          180/  8/  9   N/A
POTOMAC MD       2200   73     180/  8/ 10 1015.5S
CAMBRIDGE MD     2200   73 74  180/  2/  3 1015.7S
LEWISETTA VA     2200   71 74  200/  4/  5 1015.8R
RAPPAHANNOCK LGT 2200          130/  7/ 10 1016.9S
STINGRAY PT      2200   72     160/  6/  8   N/A
YORK RVR RNG VA  2200   72     140/ 10/ 12 1015.9S
YORKTOWN VA      2200   72 76  140/  7/  9 1015.9S
JAMESTOWN VA     2200   71     140/ 10/ 12   N/A
DOMINION TERM VA 2200   73      90/  6/ 10 1016.2S
KIPTOPEKE VA     2200      80  140/  7/  9   N/A
CHES BAY BRIDGE  2200   72 76   80/  7/ 10 1015.9F
CAPE HENRY VA    2200   71     120/  6/ 10 1015.2F
CHESAPEAKE LGHT  2100   70      90/  9/ 10 1017.1R
WILLOUBY STN VA  2200   72      80/  9/ 11 1015.0S
S CRANEY ISL VA  2200           50/ 10/ 12 1015.8S
CAPE HENRY BUOY  2200      76                N/A     3/13   2/13
1ST LANDING BUOY 2200   72     110/  8/ 12 1016.1S
CAPE CHARLES BUO 2200      75                N/A     3/12   3/12
OFFSHORE WE BUOY 2200      74                N/A     4/11   3/11
64NM E OF VA BCH 2200   72 77   40/ 12/ 16 1015.8R   5/11   3/11
DUCK PIER NC     2200   71 75   60/ 12/ 14 1015.5F
44100 DUCK FRF   2200      75                N/A     4/13   2/13
44056 DUCK FRF   2200                        N/A     4/13   2/13
OREGON INLET NC  2200   72 74   30/ 10/ 15 1015.9S
HATTERAS NC      2200   73 76   40/ 11/ 15 1016.1F
DIAMOND SHLS NC  2200   74      10/ 17/ 21 1015.1R   5/12   3/12
CAPE LOOKOUT NC  2100   75      50/ 15/ 18 1015.2S
$$


USA.gov is the U.S. government's official web portal to all federal, state and local government web resources and services.